Cincinnati, OH

8:04 PM EST on December 02, 2016 (GMT -0500)
Cincinnati Municipal-Lunken

Weather History for KLUK - October, 2011

Change the Weather History Date:

Thursday, October 27, 2011

  Actual Average Record
Temperature  
Mean Temperature 46 °F -  
Max Temperature 57 °F 65 °F 84 °F (1963)
Min Temperature 35 °F 40 °F 18 °F (1962)
Degree Days  
Heating Degree Days 19    
Moisture  
Dew Point 47 °F    
Average Humidity 90    
Maximum Humidity 100    
Minimum Humidity 71    
Precipitation  
Precipitation 0.21 in - - ()
Sea Level Pressure  
Sea Level Pressure 29.92 in    
Wind  
Wind Speed 7 mph (NNW)    
Max Wind Speed 14 mph    
Max Gust Speed 20 mph    
Visibility 6 miles    
Events Fog , Rain    
Averages and records for this station are not official NWS values.
T = Trace of Precipitation, MM = Missing Value Source: NWS Daily Summary

Daily Weather History Graph

Daily Weather History Graph

Search for Another Location

Airport or City:

Trip Planner

Search our weather history database for the weather conditions in past years. The results will help you decide how hot, cold, wet, or windy it might be!

Date:

Astronomy

Oct. 27, 2011 Rise Set
Actual Time 7:59 AM EDT 6:43 PM EDT
Civil Twilight 7:32 AM EDT 7:10 PM EDT
Nautical Twilight 7:00 AM EDT 7:41 PM EDT
Astronomical Twilight 6:29 AM EDT 8:12 PM EDT
Moon 9:00 AM EDT (10/27) 7:12 PM EDT (10/27)
Length of Visible Light 11h 38m
Length of Day
10h 43m
New Moon, 1% of the Moon is Illuminated
Oct 27
New Moon
Nov 2
First Quarter
Nov 10
Full
Nov 18
Last Quarter
Nov 25
New

Hourly Weather History & Observations

Time (EDT) Temp. Windchill Dew Point Humidity Pressure Visibility Wind Dir Wind Speed Gust Speed Precip Events Conditions
12:29 AM 57.2 °F - 55.4 °F 94% 29.82 in 2.0 mi West 3.5 mph - 0.08 in Rain Rain
12:44 AM 57.2 °F - 55.4 °F 94% 29.81 in 3.0 mi WNW 5.8 mph - 0.09 in Rain Rain
12:53 AM 57.9 °F - 55.0 °F 90% 29.81 in 3.0 mi WNW 5.8 mph - 0.10 in Rain Light Rain
1:04 AM 57.2 °F - 55.4 °F 94% 29.82 in 4.0 mi NNW 6.9 mph - 0.00 in Rain Light Rain
1:13 AM 57.2 °F - 55.4 °F 94% 29.81 in 3.0 mi NNW 6.9 mph - 0.03 in Rain Heavy Rain
1:26 AM 57.2 °F - 53.6 °F 88% 29.81 in 4.0 mi NNW 9.2 mph - 0.06 in Rain Rain
1:35 AM 55.4 °F - 53.6 °F 94% 29.81 in 4.0 mi NW 9.2 mph - 0.06 in Rain Light Rain
1:53 AM 55.4 °F - 53.6 °F 94% 29.81 in 3.0 mi NW 5.8 mph - N/A Rain Rain
2:00 AM 55.4 °F - 53.6 °F 94% 29.81 in 2.0 mi NNW 5.8 mph - 0.05 in Rain Heavy Rain
2:05 AM 55.4 °F - 53.6 °F 94% 29.81 in 3.0 mi NW 6.9 mph - 0.05 in Rain Light Rain
2:32 AM 55.4 °F - 53.6 °F 94% 29.81 in 4.0 mi NW 3.5 mph - 0.07 in Rain Light Rain
2:46 AM 55.4 °F - 53.6 °F 94% 29.82 in 3.0 mi NW 3.5 mph - 0.08 in Rain Light Rain
2:53 AM 55.0 °F - 53.1 °F 93% 29.81 in 3.0 mi NNW 8.1 mph - 0.09 in Rain Rain
3:20 AM 53.6 °F - 51.8 °F 94% 29.81 in 3.0 mi NNW 4.6 mph - 0.06 in Rain Rain
3:53 AM 53.6 °F - 51.8 °F 94% 29.81 in 4.0 mi NNW 4.6 mph - N/A Rain Light Rain
4:28 AM 53.6 °F - 51.8 °F 94% 29.79 in 8.0 mi North 4.6 mph - 0.02 in Rain Light Rain
4:37 AM 53.6 °F - 51.8 °F 94% 29.80 in 9.0 mi NNW 4.6 mph - 0.02 in   Overcast
4:53 AM 53.1 °F - 51.1 °F 93% 29.80 in 9.0 mi NNW 4.6 mph - 0.02 in   Overcast
5:14 AM 53.6 °F - 51.8 °F 94% 29.80 in 9.0 mi Variable 5.8 mph - N/A   Overcast
5:53 AM 53.1 °F - 50.0 °F 89% 29.80 in 10.0 mi NNW 6.9 mph - N/A   Overcast
6:34 AM 53.6 °F - 50.0 °F 88% 29.81 in 8.0 mi NNW 5.8 mph - N/A   Overcast
6:53 AM 52.0 °F - 50.0 °F 93% 29.81 in 7.0 mi NNW 9.2 mph - N/A   Overcast
7:53 AM 51.1 °F - 48.0 °F 89% 29.84 in 5.0 mi NNW 11.5 mph - N/A   Overcast
8:46 AM 50.0 °F - 48.2 °F 94% 29.84 in 7.0 mi North 9.2 mph - 0.00 in   Overcast
8:53 AM 50.0 °F - 48.0 °F 93% 29.85 in 5.0 mi NNW 8.1 mph - 0.00 in   Overcast
9:41 AM 50.0 °F - 46.4 °F 87% 29.87 in 7.0 mi North 6.9 mph - N/A   Overcast
9:49 AM 50.0 °F - 46.4 °F 87% 29.86 in 6.0 mi NNW 8.1 mph - N/A   Overcast
9:53 AM 50.0 °F - 46.9 °F 89% 29.86 in 6.0 mi NNW 9.2 mph - N/A   Overcast
10:32 AM 50.0 °F - 46.4 °F 87% 29.88 in 2.5 mi NNW 10.4 mph - 0.00 in Rain Light Rain
10:53 AM 48.9 °F - 46.0 °F 90% 29.90 in 3.0 mi NNW 9.2 mph - 0.00 in Rain Light Rain
11:10 AM 48.2 °F - 46.4 °F 93% 29.91 in 2.0 mi NNW 11.5 mph 19.6 mph 0.00 in Rain Light Rain
11:19 AM 48.2 °F - 46.4 °F 93% 29.91 in 2.0 mi NNW 11.5 mph - 0.00 in Rain Light Rain
11:27 AM 48.2 °F - 46.4 °F 93% 29.92 in 2.5 mi North 13.8 mph - 0.00 in Rain Light Rain
11:33 AM 48.2 °F - 46.4 °F 93% 29.91 in 3.0 mi North 11.5 mph - 0.00 in Rain Light Rain
11:53 AM 48.9 °F - 46.0 °F 90% 29.92 in 3.0 mi NNW 13.8 mph 19.6 mph 0.00 in Rain Light Rain
12:04 PM 48.2 °F - 44.6 °F 87% 29.92 in 9.0 mi NNW 13.8 mph - 0.00 in Rain Light Rain
12:19 PM 48.2 °F - 44.6 °F 87% 29.93 in 5.0 mi North 8.1 mph - 0.00 in Rain Light Rain
12:53 PM 48.9 °F - 45.0 °F 86% 29.93 in 10.0 mi North 11.5 mph - 0.00 in Rain Light Rain
1:29 PM 48.2 °F - 44.6 °F 87% 29.94 in 10.0 mi NNW 12.7 mph - 0.00 in Rain Light Rain
1:53 PM 48.0 °F - 43.0 °F 83% 29.95 in 10.0 mi NNW 11.5 mph - 0.00 in Rain Light Rain
2:53 PM 48.0 °F - 41.0 °F 77% 29.98 in 10.0 mi NNW 9.2 mph 18.4 mph 0.00 in   Overcast
3:40 PM 48.2 °F - 41.0 °F 76% 29.98 in 10.0 mi North 13.8 mph 19.6 mph N/A   Overcast
3:53 PM 48.9 °F - 41.0 °F 74% 29.99 in 10.0 mi North 12.7 mph - N/A   Overcast
4:53 PM 48.0 °F - 39.0 °F 71% 30.03 in 10.0 mi North 11.5 mph - N/A   Overcast
5:53 PM 46.9 °F - 37.9 °F 71% 30.05 in 10.0 mi North 8.1 mph - N/A   Overcast
6:53 PM 46.9 °F - 39.0 °F 74% 30.09 in 10.0 mi North 3.5 mph - N/A   Overcast
7:53 PM 43.0 °F - 37.9 °F 82% 30.12 in 10.0 mi Calm Calm - N/A   Clear
8:53 PM 41.0 °F 39.0 °F 37.9 °F 89% 30.13 in 10.0 mi NE 3.5 mph - N/A   Clear
9:53 PM 41.0 °F - 39.0 °F 93% 30.15 in 10.0 mi Calm Calm - N/A   Clear
10:47 PM 37.4 °F - 37.4 °F 100% 30.16 in 1.8 mi Calm Calm - N/A   Clear
10:53 PM 39.0 °F - 37.9 °F 96% 30.17 in 1.8 mi Calm Calm - N/A   Clear
10:56 PM 39.2 °F - 37.4 °F 93% 30.16 in 3.0 mi Calm Calm - N/A   Clear
11:29 PM 37.4 °F - 37.4 °F 100% 30.17 in 1.8 mi Calm Calm - N/A   Clear
11:38 PM 35.6 °F - 35.6 °F 100% 30.17 in 0.5 mi Calm Calm - N/A Fog Fog
11:45 PM 37.4 °F - 35.6 °F 93% 30.17 in 2.0 mi Calm Calm - N/A   Clear
11:53 PM 37.0 °F - 36.0 °F 96% 30.18 in 6.0 mi Calm Calm - N/A   Clear